Flag for Ireland Weather past 2 weeks in Dundalk, Ireland

Now
54 °F

Cool.


Feels Like: 53 °F
Forecast: 45 / 60 °F
Wind: 3 mph from Northwest

Location: Glenanne

Current Time: Aug 20, 2014 at 8:43:56 PM

Latest Report: Aug 20, 2014 at 8:00 PM


Visibility: 28 mi

Pressure: 30.03 "Hg

Humidity: 74%

Dew point: 46 °F

Location of DundalkLocation

Historic Weather in Dundalk — Graph

°F

Dundalk temperature yesterday

Maximum temperature yesterday: 56 °F (at 6:00 PM)
Minimum temperature yesterday: 46 °F (at 7:00 AM)
Average temperature yesterday: 50 °F

Past Weeks' High & Low Weather Summary

 TemperatureHumidityPressure
High71 °F (Aug 6, 2:00 PM)98% (Aug 6, 3:00 AM)30.16 "Hg (Aug 6, 3:00 AM)
Low46 °F (Aug 19, 7:00 AM)58% (Aug 7, 3:00 PM)29.38 "Hg (Aug 10, 10:00 AM)
Average55 °F83%29.79 "Hg
* Reported Aug 5 7:00 PM — Aug 20 7:00 PM, Dundalk, Weather by CustomWeather, © 2014

Note: Actual official high and low records may vary slightly from our data, if they occured in-between our weather recording intervals... More about our weather records

Advertising

Dundalk weather history for previous 24 hours

 ConditionsComfort  
Time TempWeatherWind HumidityBarometerVisibility
7:00 PM
Aug 20
54 °FCool.7 mph73%30.04 "Hg31 mi
6:00 PM55 °FCool.8 mph68%30.05 "Hg31 mi
5:00 PM57 °FCool.10 mph65%30.05 "Hg31 mi
4:00 PM57 °FCool.10 mph67%30.06 "Hg22 mi
3:00 PM56 °FCool.12 mph68%30.08 "Hg31 mi
2:00 PM57 °FCool.9 mph71%30.08 "Hg25 mi
1:00 PM55 °FCool.8 mph72%30.08 "Hg25 mi
12:00 PM53 °FCool.12 mph76%30.09 "Hg25 mi
11:00 AM53 °FCool.9 mph74%30.08 "Hg28 mi
10:00 AM51 °FCool.9 mph81%30.09 "Hg25 mi
9:00 AM49 °FCool.8 mph83%30.09 "Hg28 mi
8:00 AM48 °FCool.8 mph87%30.07 "Hg31 mi
7:00 AM46 °FCool.9 mph89%30.07 "Hg28 mi
6:00 AM46 °FCool.7 mph90%30.07 "Hg31 mi
5:00 AM46 °FCool.9 mph88%30.07 "Hg28 mi
4:00 AM47 °FCool.9 mph87%30.07 "Hg28 mi
3:00 AM47 °FCool.10 mph83%30.07 "Hg28 mi
2:00 AM47 °FCool.9 mph84%30.07 "Hg22 mi
1:00 AM46 °FCool.8 mph86%30.07 "Hg25 mi
12:00 AM47 °FCool.7 mph82%30.07 "Hg28 mi
11:00 PM
Aug 19
47 °FCool.7 mph84%30.07 "Hg28 mi
10:00 PM49 °FCool.7 mph80%30.06 "Hg28 mi
9:00 PM50 °FCool.7 mph75%30.05 "Hg28 mi
8:00 PM52 °FCool.8 mph72%30.03 "Hg19 mi
Weather by CustomWeather, © 2014

See weather overviewHow to use our weather pages